Regional Weather Roundup
Issued by NWS

Home | Current Version | Previous Version | Graphics & Text | Print | Product List | Glossary On
Versions: 1 2 3 4 5 6 7 8 9 10 11 12 13 14 15 16 17 18 19 20 21 22 23 24 25 26 27 28 29 30 31 32 33 34 35 36 37 38 39 40 41 42 43 44 45 46 47 48 49 50
000
ASUS43 KIND 160909
RWRIN

WEATHER ROUNDUP FOR INDIANA
NATIONAL WEATHER SERVICE INDIANAPOLIS IN
400 AM EST TUE JAN 16 2018

NOTE: "FAIR" INDICATES FEW OR NO CLOUDS BELOW 12,000 FEET WITH NO
SIGNIFICANT WEATHER AND/OR OBSTRUCTIONS TO VISIBILITY.

* - STATION DOES NOT REPORT WEATHER SUCH AS PRECIPITATION OR FOG.

+ - STATION NOT QUALITY CONTROLLED BY THE NATIONAL WEATHER SERVICE.
    USE DATA WITH CAUTION...ESPECIALLY DEWPOINT AND RELATIVE
    HUMIDITY OBSERVATIONS.

INZ001>003-010>013-019-020-161000-
NORTHWEST INDIANA

CITY           SKY/WX    TMP DP  RH WIND       PRES   REMARKS
GARY /AIRPORT/ LGT SNOW   6  -1  75 SW10      30.39S WCI  -9
KNOX *+        CLOUDY     1  -4  78 SW13G18   30.39S WCI -16
LA PORTE +     LGT SNOW   2  -2  82 SW10      30.36S WCI -14
MICHIGAN CITY+ LGT SNOW   7   1  78 SW13      30.37R WCI  -9
MONTICELLO +   FAIR      -1  -7  75 W10       30.43S WCI -17
RENSSELAER +   LGT SNOW   1  -6  71 SW15      30.42R WCI -18
VALPARAISO     LGT SNOW   3  -1  83 SW13      30.37S FOG     WCI -14

$$

LMZ046-743>745-161000-
SOUTHERN LAKE MICHIGAN

STATION/POSITION TIME  TEMP    WIND        PRES    WAVE
                       AIR SEA DIR/SP/G            HT
                 (UTC) (F)     (DEG/KT/KT) (MB)    (FT)
BURNS HARBOR     0901    5     230/ 13/ 19 1028.8
MICHIGAN CITY    0840          200/ 15/ 17   N/A

$$

INZ004-005-014>016-021>024-161000-
NORTH CENTRAL INDIANA

CITY           SKY/WX    TMP DP  RH WIND       PRES   REMARKS
GOSHEN         MOCLDY    -2  -6  83 SW7       30.36S WCI -15
LOGANSPORT +   FAIR       0  -6  78 W10       30.43S WCI -17
PERU/GRISSOM   CLOUDY    -1  -5  82 W12       30.40R WCI -18
ROCHESTER +    CLOUDY     3   0  85 SW9       30.40S HAZE    WCI -11
SOUTH BEND     CLOUDY     2  -2  83 SW12      30.36S WCI -15
WARSAW +       FAIR       1  -4  78 SW6       30.37S WCI -10

$$

INZ006>009-017-018-025>027-161000-
NORTHEAST INDIANA

CITY           SKY/WX    TMP DP  RH WIND       PRES   REMARKS
AUBURN +       FAIR       3  -2  78 SW6       30.38R WCI  -8
FORT WAYNE     FAIR       3  -1  83 W7        30.39R WCI  -9
HUNTINGTON +   CLOUDY     3  -2  78 W10       30.40R WCI -12
KENDALLVILLE + FAIR       1  -3  85 W10       30.35S WCI -16

$$

INZ028-029-035-036-043>045-051>053-161000-
WEST CENTRAL INDIANA

CITY           SKY/WX    TMP DP  RH WIND       PRES   REMARKS
CRAWFORDSVL +  FAIR      -2  -6  82 MISG        N/A
GREENCASTLE +  FAIR       0  -6  78 W5        30.49R WCI -10
LAFAYETTE      CLOUDY    -1  -6  79 W9        30.46S WCI -16
TERRE HAUTE    FAIR       0  -8  69 W8        30.54R WCI -14

$$

INZ030>032-037>040-046>048-054>057-064-065-161000-
CENTRAL INDIANA

CITY           SKY/WX    TMP DP  RH WIND       PRES   REMARKS
FISHERS *+       N/A      0   0 100 W3        30.46R
FRANKFORT +    FAIR       2  -3  79 W13       30.45R WCI -15
GREENWOOD *+   FAIR       3  -3  75 W7        30.47R WCI -10
INDIANAPOLIS   FAIR       0  -5  79 SW12      30.47R WCI -17
-EAGLE CREEK   FAIR       0  -5  79 SW5       30.46R WCI -10
MARION +       FAIR       0  -4  83 W9        30.42S WCI -16
MT COMFORT *+  FAIR       0  -2  92 W8        30.45R WCI -15
SHELBYVILLE    FAIR       3  -4  72 W8        30.47R WCI -10
ZIONSVILLE +   FAIR      -1  -4  85 W8        30.44R WCI -15

$$

INZ033-034-041-042-049-050-058-059-161000-
EAST CENTRAL INDIANA

CITY           SKY/WX    TMP DP  RH WIND       PRES   REMARKS
MUNCIE         FAIR       2  -4  76 W12       30.42R WCI -15
RICHMOND +     FAIR       3   0  85 W13       30.41S WCI -14

$$

INZ060-061-067>069-081>083-085>088-161000-
SOUTHWEST INDIANA

CITY           SKY/WX    TMP DP  RH WIND       PRES   REMARKS
EVANSVILLE     FAIR       8  -1  66 NW10      30.59R WCI  -6
HUNTINGBURG +  CLOUDY     7  -1  70 NW13      30.56R WCI  -9
WASHINGTON +   FAIR       4  -5  66 NW9       30.57R WCI -10

$$

INZ062-063-066-070>080-084-089>092-161000-
SOUTH CENTRAL AND SOUTHEAST INDIANA

CITY           SKY/WX    TMP DP  RH WIND       PRES   REMARKS
BATESVILLE *+    N/A    N/A N/A N/A MISG        N/A
BEDFORD +      FAIR       5   0  78 W5        30.50R WCI  -4
BLOOMINGTON    FAIR       2  -5  72 W10       30.49R WCI -14
MADISON *+     CLOUDY    12   5  73 W6        30.48R WCI   3
NORTH VERNON + FAIR       5  -2  72 W9        30.48R WCI  -9
SEYMOUR +      CLOUDY     9  -2  61 W10       30.51R WCI  -6

$$





USA.gov is the U.S. government's official web portal to all federal, state and local government web resources and services.